Location: Wyoming Infrared Observatory
(41.0971°N, 105.9765°W)
Time: 14:10:31
(UTC-07:00)

Amateur Radio Satellites - All Passes

Search period start: 09 December 2016 13:40
Search period end: 10 December 2016 13:40
Location: Wyoming Infrared Observatory, 41.0971°N, 105.9765°W

Satellite Date Start Highest point End Downlink Frequencies (MHz)
Time Altitude Azimuth
ITAMSAT 1 09 Dec 13:42:15 13:47:04 39° 69° (ENE) 13:51:53 435.822/435.867
ISS 09 Dec 13:42:25 13:44:02 13° 130° (SE) 13:45:38 145.825
GONETS M04 09 Dec 14:12:35 14:13:37 10° 288° (WNW) 14:14:39
TISAT 1 09 Dec 14:22:13 14:26:01 33° 290° (WNW) 14:29:47 437.305
BEESAT 3 09 Dec 14:24:51 14:25:38 10° 252° (WSW) 14:26:25 437.485
SWISSCUBE 09 Dec 14:30:35 14:35:17 57° 101° (E) 14:39:57 437.505
BEESAT 09 Dec 14:34:13 14:38:54 56° 101° (E) 14:43:33 436.000
AUBIESAT-1 09 Dec 14:42:44 14:47:07 45° 103° (ESE) 14:51:14 437.475
AIST 2 09 Dec 14:46:20 14:49:23 19° 44° (NE) 14:52:25 435.215
M-CUBED/EXP-1 PRIME 09 Dec 14:58:14 15:02:55 84° 106° (ESE) 15:07:20 437.505
ITUPSAT 1 09 Dec 15:04:31 15:09:17 74° 286° (WNW) 15:14:01 437.325
MOZHAYETS 4 09 Dec 15:05:50 15:09:50 29° 96° (E) 15:13:48
KKS-1 09 Dec 15:09:15 15:11:04 12° 90° (E) 15:12:52 437.445
ISS 09 Dec 15:16:51 15:20:07 70° 326° (NW) 15:23:25 145.825
O/OREOS (USA 219) 09 Dec 15:19:06 15:23:40 89° 87° (E) 15:28:13 437.305
HORYU 2 09 Dec 15:21:20 15:23:42 14° 62° (ENE) 15:26:02 437.375
RS-15 09 Dec 15:21:51 15:34:15 68° 52° (NE) 15:46:13 29.354- 29.394
ITAMSAT 1 09 Dec 15:22:19 15:26:36 26° 265° (W) 15:30:54 435.822/435.867
AO-7 09 Dec 15:25:16 15:33:19 54° 258° (WSW) 15:41:28 29.400- 29.500
GOMX 1 09 Dec 15:41:43 15:43:56 13° 60° (ENE) 15:46:13 467.674
CUTE-I 09 Dec 15:49:28 15:50:04 10° 56° (ENE) 15:50:42 437.470
NOAA 15 09 Dec 15:57:12 15:59:40 14° 59° (ENE) 16:02:09 137.62
SWISSCUBE 09 Dec 16:09:42 16:12:36 16° 297° (WNW) 16:15:28 437.505
BEESAT 09 Dec 16:13:15 16:16:13 17° 297° (WNW) 16:19:10 436.000
Cubesat XI-IV 09 Dec 16:13:33 16:16:59 18° 61° (ENE) 16:20:27 437.490
Cosmos 2491 09 Dec 16:15:17 16:22:04 24° 65° (ENE) 16:28:49 435.465 / 435.565
AUBIESAT-1 09 Dec 16:17:53 16:21:08 20° 301° (WNW) 16:24:16 437.475
BRITE-PL 09 Dec 16:23:37 16:27:58 76° 76° (ENE) 16:32:42 437.365/2234.400
AIST 2 09 Dec 16:24:01 16:28:09 52° 242° (WSW) 16:32:14 435.215
NOAA 18 09 Dec 16:29:14 16:32:41 17° 59° (ENE) 16:36:08 137.9125
M-CUBED/EXP-1 PRIME 09 Dec 16:34:46 16:36:38 12° 305° (NW) 16:38:28 437.505
STARS 09 Dec 16:38:22 16:42:42 53° 101° (E) 16:46:59 437.465
MOZHAYETS 4 09 Dec 16:43:04 16:46:53 27° 292° (WNW) 16:50:41
KKS-1 09 Dec 16:43:35 16:48:02 62° 286° (WNW) 16:52:25 437.445
YUBILEINY 09 Dec 16:45:58 16:49:17 13° 74° (ENE) 16:52:37 435.215
ISS 09 Dec 16:54:45 16:57:06 18° 344° (NNW) 16:59:27 145.825
HORYU 2 09 Dec 16:55:18 16:59:43 60° 259° (WSW) 17:04:10 437.375
CUBESAT XI-V 09 Dec 16:55:49 17:00:28 63° 101° (E) 17:05:07 437.345
O/OREOS (USA 219) 09 Dec 17:02:26 17:03:44 11° 310° (NW) 17:05:03 437.305
DOVE 4 09 Dec 17:06:40 17:11:11 38° 70° (ENE) 17:15:57 437.250
LilacSat-2 09 Dec 17:15:24 17:19:10 59° 75° (ENE) 17:22:57 437.200
GOMX 1 09 Dec 17:16:34 17:21:13 76° 258° (WSW) 17:26:17 467.674
CUTE-I 09 Dec 17:23:50 17:29:10 73° 74° (ENE) 17:34:32 437.470
HO-68 09 Dec 17:25:28 17:30:40 22° 57° (ENE) 17:35:53 435.675
NOAA 15 09 Dec 17:33:29 17:38:43 83° 256° (WSW) 17:44:00 137.62
RS-15 09 Dec 17:35:14 17:45:58 38° 255° (WSW) 17:56:23 29.354- 29.394
Cubesat XI-IV 09 Dec 17:51:11 17:56:31 65° 258° (WSW) 18:01:53 437.490
CINEMA 3 09 Dec 17:55:48 18:00:10 32° 69° (ENE) 18:04:35 145.822/145.860
AIST 1 09 Dec 18:01:08 18:01:42 10° 83° (E) 18:02:17
NOAA 18 09 Dec 18:07:11 18:12:42 72° 257° (WSW) 18:18:17 137.9125
Cosmos 2491 09 Dec 18:11:05 18:19:46 73° 266° (W) 18:28:25 435.465 / 435.565
STARS 09 Dec 18:16:02 18:18:36 15° 297° (WNW) 18:21:09 437.465
CUSAT 1 09 Dec 18:29:07 18:30:35 11° 73° (ENE) 18:32:09 437.405
CUTE 1.7 + AOD 2 09 Dec 18:29:56 18:33:47 36° 72° (ENE) 18:37:39 437.475
ISS 09 Dec 18:32:49 18:34:36 14° 5° (N) 18:36:22 145.825
CUBESAT XI-V 09 Dec 18:34:48 18:37:19 14° 297° (WNW) 18:39:49 437.345
AAUSAT CUBESAT 2 09 Dec 18:35:15 18:37:36 15° 65° (ENE) 18:39:56 437.432
YUBILEINY 09 Dec 18:35:45 18:44:23 73° 93° (E) 18:53:06 435.215
PCSat 09 Dec 18:38:41 18:43:11 26° 48° (NE) 18:47:40 145.827
DOVE 4 09 Dec 18:44:59 18:48:58 25° 268° (W) 18:53:08 437.250
CANX-2 09 Dec 18:48:27 18:52:38 71° 76° (ENE) 18:56:50 2200.000
ZACube-1 09 Dec 18:54:39 18:56:34 13° 63° (ENE) 18:58:27 437.345
STRAND 1 09 Dec 18:56:48 19:01:32 38° 98° (E) 19:06:15 437.568
FUNcube-1 09 Dec 18:59:45 19:01:48 13° 63° (ENE) 19:03:50 145.935
Cosmos 2504 09 Dec 19:03:35 19:11:44 56° 90° (E) 19:20:18 435.465 / 435.565
SEEDS 09 Dec 19:05:14 19:09:20 63° 75° (ENE) 19:13:28 437.485
SO-50 09 Dec 19:05:27 19:10:13 77° 120° (ESE) 19:14:56 436.795
CUTE-I 09 Dec 19:07:02 19:09:44 14° 270° (W) 19:12:27 437.470
COMPASS 1 09 Dec 19:07:54 19:11:48 43° 73° (ENE) 19:15:44 437.405
HO-68 09 Dec 19:10:28 19:17:38 77° 256° (WSW) 19:24:51 435.675
CUBEBUG 2 09 Dec 19:22:21 19:27:01 61° 75° (ENE) 19:31:39 437.445
Oscar 11 09 Dec 19:23:38 19:26:52 21° 67° (ENE) 19:30:06 145.826/435.025
CINEMA 3 09 Dec 19:32:52 19:37:13 30° 265° (W) 19:41:38 145.822/145.860
AIST 1 09 Dec 19:34:22 19:38:38 64° 279° (W) 19:42:59
DANDE 09 Dec 19:54:51 19:56:57 16° 77° (ENE) 19:59:21 436.750
UWE-3 09 Dec 19:56:02 20:00:41 88° 79° (E) 20:05:17 435.000/436.395/437.385
CUTE 1.7 + AOD 2 09 Dec 20:06:50 20:09:45 18° 267° (W) 20:12:39 437.475
CUSAT 1 09 Dec 20:08:24 20:12:26 62° 262° (W) 20:17:44 437.405
AAUSAT CUBESAT 2 09 Dec 20:08:44 20:12:40 45° 261° (W) 20:16:38 437.432
ISS 09 Dec 20:08:59 20:11:55 28° 25° (NNE) 20:14:51 145.825
Cosmos 2491 09 Dec 20:11:32 20:14:56 13° 286° (WNW) 20:18:19 435.465 / 435.565
PCSat 09 Dec 20:21:36 20:26:51 51° 247° (WSW) 20:32:03 145.827
ZACube-1 09 Dec 20:27:46 20:32:17 69° 259° (W) 20:36:44 437.345
DELFI C3 09 Dec 20:30:46 20:34:24 37° 72° (ENE) 20:38:03 145.870
FUNcube-1 09 Dec 20:33:02 20:37:31 65° 259° (W) 20:41:56 145.935
YUBILEINY 09 Dec 20:35:14 20:42:01 25° 294° (WNW) 20:48:54 435.215
STRAND 1 09 Dec 20:36:21 20:40:31 26° 294° (WNW) 20:44:41 437.568
SEEDS 09 Dec 20:44:49 20:45:26 10° 271° (W) 20:46:04 437.485
COMPASS 1 09 Dec 20:45:15 20:47:34 15° 268° (W) 20:49:54 437.405
SO-50 09 Dec 20:48:07 20:51:13 17° 319° (NW) 20:54:18 436.795
Cosmos 2504 09 Dec 20:58:01 21:05:30 34° 291° (WNW) 21:13:21 435.465 / 435.565
Oscar 11 09 Dec 20:58:50 21:02:46 34° 263° (W) 21:06:43 145.826/435.025
CUBEBUG 2 09 Dec 21:01:31 21:03:58 14° 270° (W) 21:06:25 437.445
HO-68 09 Dec 21:03:52 21:06:26 12° 273° (W) 21:09:01 435.675
PRISM 09 Dec 21:07:46 21:11:53 57° 101° (E) 21:15:59 437.425
HUMSAT D 09 Dec 21:18:31 21:22:42 74° 76° (ENE) 21:26:51 437.325/437.525
UNISAT 6 09 Dec 21:22:37 21:25:40 18° 93° (E) 21:28:41 437.425
DANDE 09 Dec 21:37:08 21:39:31 20° 264° (W) 21:42:19 436.750
PHONESAT 2.4 09 Dec 21:44:55 21:46:09 12° 150° (SSE) 21:47:22 2401.200-2431.200
ISS 09 Dec 21:45:21 21:48:29 41° 222° (SW) 21:51:37 145.825
TIGRISAT 09 Dec 21:50:32 21:54:32 34° 97° (E) 21:58:25 435.000
ANTELSAT 09 Dec 21:53:04 21:57:10 39° 98° (E) 22:01:11 437.575/2403.000
AISAT 09 Dec 21:56:06 21:58:01 13° 62° (ENE) 21:59:55 437.250
ESTCUBE 1 09 Dec 22:05:18 22:09:20 34° 70° (ENE) 22:13:23 437.505/2401.250
DELFI C3 09 Dec 22:07:01 22:09:22 15° 268° (W) 22:11:43 145.870
CUBEBUG 1 09 Dec 22:08:55 22:12:21 23° 67° (ENE) 22:15:49 437.445
VELOX 1 09 Dec 22:30:37 22:34:18 27° 68° (ENE) 22:38:01 145.980
DX 1 09 Dec 22:30:59 22:33:25 15° 63° (ENE) 22:35:53 434.975-435.025
UKube-1 09 Dec 22:31:05 22:32:08 11° 61° (ENE) 22:33:11 .
SPROUT 09 Dec 22:32:30 22:35:27 18° 66° (ENE) 22:38:23 437.525
NANOSAT C BR1 09 Dec 22:41:23 22:43:18 13° 91° (E) 22:45:11 145.865
PRISM 09 Dec 22:44:46 22:46:41 13° 297° (WNW) 22:48:36 437.425
QB50P2 09 Dec 22:50:33 22:53:36 19° 93° (E) 22:56:38 145.880/145.840
POLYITAN 1 09 Dec 22:51:03 22:53:59 18° 93° (E) 22:56:54 437.675
UNISAT 6 09 Dec 22:58:30 23:02:32 37° 289° (WNW) 23:06:29 437.425
DUCHIFAT 1 09 Dec 23:00:20 23:03:24 19° 94° (E) 23:06:26 145.980
QB50P1 09 Dec 23:02:14 23:05:42 24° 95° (E) 23:09:07 145.935-145.965
JAS-2 09 Dec 23:13:12 23:18:19 51° 101° (E) 23:23:46 435.910
GONETS M04 09 Dec 23:15:33 23:22:54 32° 84° (E) 23:30:13
PHONESAT 2.4 09 Dec 23:18:21 23:20:55 47° 166° (SSE) 23:23:30 2401.200-2431.200
POPSAT HIP 1 09 Dec 23:23:48 23:27:49 41° 98° (E) 23:31:47 437.405
TIGRISAT 09 Dec 23:27:44 23:30:59 21° 294° (WNW) 23:34:11 435.000
50 SAT 09 Dec 23:28:45 23:32:15 81° 257° (WSW) 23:35:47 437.505
AISAT 09 Dec 23:29:29 23:33:53 67° 258° (WSW) 23:38:20 437.250
ANTELSAT 09 Dec 23:30:33 23:33:34 19° 295° (WNW) 23:36:33 437.575/2403.000
TISAT 1 09 Dec 23:39:13 23:41:51 16° 64° (ENE) 23:44:27 437.305
BUGSAT 1 09 Dec 23:39:31 23:42:35 20° 94° (E) 23:45:36 437.445
ESTCUBE 1 09 Dec 23:42:44 23:46:12 22° 266° (W) 23:49:40 437.505/2401.250
Cosmos 2499 09 Dec 23:42:54 23:51:11 54° 89° (E) 23:59:45 435.465 / 435.565
CUBEBUG 1 09 Dec 23:44:32 23:48:27 32° 263° (W) 23:52:25 437.445
O/OREOS (USA 219) 09 Dec 23:50:57 23:54:03 18° 55° (NE) 23:57:08 437.305
UKube-1 10 Dec 00:03:13 00:07:31 76° 257° (WSW) 00:11:52 .
DX 1 10 Dec 00:04:54 00:09:09 53° 259° (W) 00:13:27 434.975-435.025
VELOX 1 10 Dec 00:06:52 00:10:40 28° 264° (W) 00:14:30 145.980
SPROUT 10 Dec 00:06:59 00:11:03 41° 262° (W) 00:15:09 437.525
M-CUBED/EXP-1 PRIME 10 Dec 00:12:33 00:14:08 12° 54° (NE) 00:15:45 437.505
NANOSAT C BR1 10 Dec 00:15:13 00:19:20 52° 287° (WNW) 00:23:24 145.865
QB50P2 10 Dec 00:25:38 00:29:30 35° 289° (WNW) 00:33:20 145.880/145.840
POLYITAN 1 10 Dec 00:26:00 00:29:54 37° 289° (WNW) 00:33:46 437.675
DUCHIFAT 1 10 Dec 00:35:20 00:39:09 34° 290° (WNW) 00:42:56 145.980
ITUPSAT 1 10 Dec 00:35:47 00:38:24 15° 62° (ENE) 00:41:01 437.325
QB50P1 10 Dec 00:37:48 00:41:25 28° 291° (WNW) 00:45:02 145.935-145.965
AO-85 10 Dec 00:48:41 00:53:35 66° 120° (ESE) 00:58:08 145.980
PHONESAT 2.4 10 Dec 00:53:22 00:56:01 80° 183° (S) 00:58:39 2401.200-2431.200
JAS-2 10 Dec 00:59:24 01:03:07 20° 296° (WNW) 01:06:57 435.910
POPSAT HIP 1 10 Dec 01:00:28 01:03:16 17° 295° (WNW) 01:06:03 437.405
GONETS M04 10 Dec 01:10:45 01:19:13 55° 283° (WNW) 01:27:45
TISAT 1 10 Dec 01:13:01 01:17:06 46° 261° (W) 01:21:12 437.305
BUGSAT 1 10 Dec 01:14:16 01:18:01 33° 290° (WNW) 01:21:42 437.445
Oscar 19 10 Dec 01:16:40 01:21:45 52° 100° (E) 01:26:49 437.125/150
AUBIESAT-1 10 Dec 01:27:36 01:31:44 54° 68° (ENE) 01:36:09 437.475
O/OREOS (USA 219) 10 Dec 01:29:25 01:33:43 47° 253° (WSW) 01:37:59 437.305
SWISSCUBE 10 Dec 01:36:41 01:41:24 66° 74° (ENE) 01:46:09 437.505
Cosmos 2499 10 Dec 01:36:51 01:44:36 35° 290° (WNW) 01:52:37 435.465 / 435.565
BEESAT 10 Dec 01:40:15 01:44:57 64° 73° (ENE) 01:49:41 436.000
M-CUBED/EXP-1 PRIME 10 Dec 01:43:38 01:47:50 82° 252° (WSW) 01:52:23 437.505
Gurwin Techsat 1B 10 Dec 01:48:10 01:53:23 52° 100° (E) 01:58:33 435.225
ITAMSAT 1 10 Dec 01:56:49 01:59:13 13° 90° (E) 02:01:36 435.822/435.867
SO-50 10 Dec 01:58:47 02:00:12 11° 35° (NE) 02:01:36 436.795
MOZHAYETS 4 10 Dec 02:07:38 02:11:32 28° 68° (ENE) 02:15:27
KKS-1 10 Dec 02:07:40 02:09:33 13° 61° (ENE) 02:11:26 437.445
ITUPSAT 1 10 Dec 02:10:57 02:15:41 65° 259° (WSW) 02:20:27 437.325
PHONESAT 2.4 10 Dec 02:28:35 02:31:03 35° 198° (SSW) 02:33:30 2401.200-2431.200
AO-85 10 Dec 02:31:03 02:34:22 18° 316° (NW) 02:37:33 145.980
BEESAT 3 10 Dec 02:37:47 02:38:30 10° 108° (ESE) 02:39:12 437.485
Oscar 19 10 Dec 02:56:55 03:00:40 21° 297° (WNW) 03:04:26 437.125/150
AUBIESAT-1 10 Dec 03:04:08 03:06:29 14° 265° (W) 03:08:56 437.475
BEESAT 2 10 Dec 03:15:34 03:17:19 13° 109° (ESE) 03:19:05 435.950
SWISSCUBE 10 Dec 03:17:29 03:19:37 13° 269° (W) 03:21:47 437.505
BEESAT 10 Dec 03:20:52 03:23:09 13° 269° (W) 03:25:26 436.000
AO-7 10 Dec 03:26:34 03:34:45 54° 102° (ESE) 03:42:53 29.400- 29.500
Gurwin Techsat 1B 10 Dec 03:29:02 03:32:55 21° 297° (WNW) 03:36:47 435.225
ITAMSAT 1 10 Dec 03:34:02 03:39:12 73° 286° (WNW) 03:44:20 435.822/435.867
STARS 10 Dec 03:34:34 03:38:47 46° 72° (ENE) 03:43:03 437.465
SO-50 10 Dec 03:37:04 03:41:35 65° 55° (NE) 03:46:00 436.795
KKS-1 10 Dec 03:41:04 03:45:31 69° 257° (WSW) 03:50:01 437.445
MOZHAYETS 4 10 Dec 03:44:42 03:48:38 28° 265° (W) 03:52:33
CUBESAT XI-V 10 Dec 03:58:47 04:03:17 59° 74° (ENE) 04:07:50 437.345
BEESAT 3 10 Dec 04:11:42 04:15:33 65° 303° (WNW) 04:19:29 437.485
BRITE-PL 10 Dec 04:27:49 04:32:39 29° 94° (E) 04:37:33 437.365/2234.400
YUBILEINY 10 Dec 04:46:18 04:54:16 36° 71° (ENE) 05:02:11 435.215
HORYU 2 10 Dec 04:46:41 04:50:20 25° 96° (E) 04:53:56 437.375
BEESAT 2 10 Dec 04:50:45 04:54:37 55° 305° (NW) 04:58:33 435.950
Cosmos 2504 10 Dec 04:57:41 05:03:53 21° 62° (ENE) 05:09:51 435.465 / 435.565
DOVE 4 10 Dec 05:08:01 05:09:43 11° 87° (E) 05:11:25 437.250
STARS 10 Dec 05:12:35 05:15:22 16° 268° (W) 05:18:10 437.465
Cosmos 2491 10 Dec 05:17:12 05:24:10 28° 82° (E) 05:31:07 435.465 / 435.565
GOMX 1 10 Dec 05:18:15 05:23:21 37° 96° (E) 05:28:20 467.674
SO-50 10 Dec 05:19:19 05:21:28 13° 252° (WSW) 05:23:35 436.795
AO-7 10 Dec 05:19:48 05:27:11 37° 301° (WNW) 05:34:34 29.400- 29.500
CUBESAT XI-V 10 Dec 05:38:51 05:41:03 13° 270° (W) 05:43:16 437.345
CUTE-I 10 Dec 05:41:26 05:46:01 29° 96° (E) 05:50:34 437.470
AIST 1 10 Dec 05:41:37 05:45:31 30° 75° (ENE) 05:49:22
RS-15 10 Dec 05:45:02 05:55:39 42° 107° (ESE) 06:06:40 29.354- 29.394
NOAA 15 10 Dec 05:48:51 05:53:44 37° 98° (E) 05:58:36 137.62
BRITE-PL 10 Dec 06:06:00 06:11:07 40° 290° (WNW) 06:16:22 437.365/2234.400
Cubesat XI-IV 10 Dec 06:08:31 06:13:43 51° 100° (E) 06:18:52 437.490
STRAND 1 10 Dec 06:12:24 06:17:23 54° 72° (ENE) 06:22:23 437.568
AIST 2 10 Dec 06:21:22 06:25:01 31° 114° (ESE) 06:28:42 435.215
LilacSat-2 10 Dec 06:22:49 06:26:36 88° 284° (WNW) 06:30:21 437.200
HORYU 2 10 Dec 06:23:00 06:26:52 30° 291° (WNW) 06:30:42 437.375
NOAA 18 10 Dec 06:29:25 06:34:47 49° 100° (E) 06:40:05 137.9125
CANX-2 10 Dec 06:35:22 06:37:06 12° 90° (E) 06:38:50 2200.000
HO-68 10 Dec 06:39:29 06:44:41 21° 92° (E) 06:49:51 435.675
DOVE 4 10 Dec 06:42:46 06:48:04 83° 285° (WNW) 06:53:07 437.250
YUBILEINY 10 Dec 06:42:53 06:51:17 51° 271° (W) 06:59:41 435.215
Cosmos 2504 10 Dec 06:49:42 06:58:29 85° 264° (W) 07:06:39 435.465 / 435.565
SEEDS 10 Dec 06:51:53 06:52:34 10° 89° (E) 06:53:16 437.485
GOMX 1 10 Dec 06:56:29 07:01:15 31° 292° (WNW) 07:05:56 467.674
Cosmos 2491 10 Dec 07:11:38 07:20:18 64° 281° (W) 07:29:00 435.465 / 435.565
CUBEBUG 2 10 Dec 07:15:45 07:17:17 12° 89° (E) 07:18:47 437.445
AIST 1 10 Dec 07:19:29 07:22:56 23° 272° (W) 07:26:21
CUTE-I 10 Dec 07:21:16 07:26:05 36° 292° (WNW) 07:30:53 437.470
CINEMA 3 10 Dec 07:27:15 07:32:00 72° 101° (E) 07:36:28 145.822/145.860
NOAA 15 10 Dec 07:28:54 07:33:21 28° 294° (WNW) 07:37:48 137.62
UWE-3 10 Dec 07:47:06 07:49:51 17° 92° (E) 07:52:34 435.000/436.395/437.385
Cubesat XI-IV 10 Dec 07:49:26 07:53:25 22° 297° (WNW) 07:57:22 437.490
CUTE 1.7 + AOD 2 10 Dec 07:50:01 07:54:15 76° 101° (E) 07:58:29 437.475
AAUSAT CUBESAT 2 10 Dec 07:51:04 07:54:33 26° 95° (E) 07:58:03 437.432
STRAND 1 10 Dec 07:53:27 07:56:52 18° 268° (W) 08:00:18 437.568
RS-15 10 Dec 07:55:56 08:07:37 62° 310° (NW) 08:19:53 29.354- 29.394
PRISM 10 Dec 07:56:54 08:00:41 39° 71° (ENE) 08:04:31 437.425
AIST 2 10 Dec 08:00:00 08:03:30 26° 312° (NW) 08:07:01 435.215
CANX-2 10 Dec 08:09:09 08:13:17 55° 286° (WNW) 08:17:25 2200.000
NOAA 18 10 Dec 08:10:47 08:15:06 24° 297° (WNW) 08:19:23 137.9125
ZACube-1 10 Dec 08:16:58 08:20:13 21° 94° (E) 08:23:24 437.345
UNISAT 6 10 Dec 08:21:18 08:24:32 19° 65° (ENE) 08:27:44 437.425
FUNcube-1 10 Dec 08:21:49 08:25:06 22° 94° (E) 08:28:21 145.935
DOVE 4 10 Dec 08:23:13 08:24:49 11° 302° (WNW) 08:26:25 437.250
SEEDS 10 Dec 08:24:30 08:28:40 64° 285° (WNW) 08:32:49 437.485
COMPASS 1 10 Dec 08:25:42 08:29:53 87° 103° (ESE) 08:34:04 437.405
HO-68 10 Dec 08:25:48 08:33:00 72° 289° (WNW) 08:40:08 435.675
Cosmos 2504 10 Dec 08:45:37 08:50:22 16° 285° (WNW) 08:55:00 435.465 / 435.565
Oscar 11 10 Dec 08:45:39 08:49:44 41° 98° (E) 08:53:47 145.826/435.025
TIGRISAT 10 Dec 08:48:40 08:52:49 32° 70° (ENE) 08:56:55 435.000
CUBEBUG 2 10 Dec 08:50:03 08:54:19 58° 286° (WNW) 08:58:27 437.445
ANTELSAT 10 Dec 08:51:17 08:55:34 36° 70° (ENE) 08:59:46 437.575/2403.000
DANDE 10 Dec 09:03:40 09:07:02 24° 97° (E) 09:09:48 436.750
HUMSAT D 10 Dec 09:04:11 09:05:24 11° 90° (E) 09:06:36 437.325/437.525
CINEMA 3 10 Dec 09:06:24 09:08:26 13° 299° (WNW) 09:10:25 145.822/145.860
CUSAT 1 10 Dec 09:13:06 09:15:49 38° 281° (WNW) 09:18:18 437.405
Cosmos 2491 10 Dec 09:15:58 09:19:10 12° 304° (NW) 09:22:22 435.465 / 435.565
AO-85 10 Dec 09:20:40 09:24:32 47° 53° (NE) 09:28:16 145.980
PCSat 10 Dec 09:21:13 09:25:09 21° 106° (ESE) 09:29:06 145.827
UWE-3 10 Dec 09:22:32 09:26:31 39° 288° (WNW) 09:30:23 435.000/436.395/437.385
GONETS M04 10 Dec 09:26:16 09:30:58 15° 59° (ENE) 09:35:38
JAS-2 10 Dec 09:26:31 09:31:11 23° 65° (ENE) 09:35:29 435.910
AAUSAT CUBESAT 2 10 Dec 09:26:31 09:29:57 25° 291° (WNW) 09:33:22 437.432
CUTE 1.7 + AOD 2 10 Dec 09:29:16 09:29:27 10° 298° (WNW) 09:29:38 437.475
PRISM 10 Dec 09:33:34 09:36:08 16° 267° (W) 09:38:44 437.425
NANOSAT C BR1 10 Dec 09:34:50 09:35:43 11° 61° (ENE) 09:36:35 145.865
Cosmos 2499 10 Dec 09:36:05 09:41:42 19° 61° (ENE) 09:47:04 435.465 / 435.565
DELFI C3 10 Dec 09:42:18 09:46:16 65° 101° (E) 09:50:14 145.870
QB50P2 10 Dec 09:43:39 09:46:12 16° 64° (ENE) 09:48:45 145.880/145.840
POLYITAN 1 10 Dec 09:44:11 09:46:36 15° 64° (ENE) 09:49:02 437.675
DUCHIFAT 1 10 Dec 09:52:40 09:55:11 16° 64° (ENE) 09:57:42 145.980
ZACube-1 10 Dec 09:52:51 09:56:31 30° 290° (WNW) 10:00:08 437.345
QB50P1 10 Dec 09:54:54 09:57:56 19° 66° (ENE) 10:00:58 145.935-145.965
UNISAT 6 10 Dec 09:56:24 10:00:54 46° 261° (W) 10:05:21 437.425
FUNcube-1 10 Dec 09:57:45 10:01:21 29° 291° (WNW) 10:04:55 145.935
RS-15 10 Dec 10:13:39 10:23:25 27° 340° (NNW) 10:33:22 29.354- 29.394
HO-68 10 Dec 10:15:52 10:19:29 15° 308° (NW) 10:23:05 435.675
POPSAT HIP 1 10 Dec 10:16:03 10:19:49 31° 70° (ENE) 10:23:36 437.405
Oscar 11 10 Dec 10:22:38 10:25:33 18° 294° (WNW) 10:28:28 145.826/435.025
TIGRISAT 10 Dec 10:25:39 10:29:29 25° 265° (W) 10:33:20 435.000
ANTELSAT 10 Dec 10:28:40 10:32:19 22° 266° (W) 10:35:57 437.575/2403.000
BUGSAT 1 10 Dec 10:29:42 10:32:10 15° 64° (ENE) 10:34:38 437.445
HUMSAT D 10 Dec 10:37:21 10:41:20 56° 286° (WNW) 10:45:19 437.325/437.525
DANDE 10 Dec 10:47:15 10:49:35 15° 283° (WNW) 10:51:40 436.750
AO-85 10 Dec 11:02:29 11:04:27 14° 251° (WSW) 11:06:26 145.980
PCSat 10 Dec 11:02:49 11:08:07 55° 304° (WNW) 11:13:27 145.827
NANOSAT C BR1 10 Dec 11:06:32 11:10:48 75° 257° (WSW) 11:15:05 145.865
JAS-2 10 Dec 11:09:53 11:16:00 52° 259° (W) 11:21:30 435.910
QB50P2 10 Dec 11:17:27 11:21:35 48° 261° (W) 11:25:46 145.880/145.840
POLYITAN 1 10 Dec 11:17:47 11:21:58 51° 260° (W) 11:26:10 437.675
DELFI C3 10 Dec 11:19:42 11:20:32 11° 297° (WNW) 11:21:22 145.870
AISAT 10 Dec 11:20:11 11:23:44 23° 94° (E) 11:27:16 437.250
GONETS M04 10 Dec 11:20:40 11:29:25 75° 81° (E) 11:38:10
DUCHIFAT 1 10 Dec 11:26:21 11:30:27 48° 260° (W) 11:34:36 145.980
Cosmos 2499 10 Dec 11:27:37 11:36:10 89° 264° (W) 11:44:01 435.465 / 435.565
QB50P1 10 Dec 11:29:26 11:33:24 38° 262° (W) 11:37:25 145.935-145.965
CUBEBUG 1 10 Dec 11:32:34 11:36:51 44° 99° (E) 11:41:04 437.445
BEESAT 2 10 Dec 11:32:48 11:34:02 11° 39° (NE) 11:35:17 435.950
Gurwin Techsat 1B 10 Dec 11:33:41 11:35:19 11° 57° (ENE) 11:36:56 435.225
ESTCUBE 1 10 Dec 11:33:49 11:38:22 77° 104° (ESE) 11:42:53 437.505/2401.250
UKube-1 10 Dec 11:51:17 11:54:14 18° 93° (E) 11:57:10 .
POPSAT HIP 1 10 Dec 11:52:13 11:55:36 23° 265° (W) 11:59:01 437.405
SPROUT 10 Dec 11:52:48 11:56:39 32° 97° (E) 12:00:28 437.525
DX 1 10 Dec 11:53:25 11:57:05 25° 96° (E) 12:00:43 434.975-435.025
VELOX 1 10 Dec 11:56:07 12:00:30 53° 100° (E) 12:04:51 145.980
BUGSAT 1 10 Dec 12:03:00 12:07:07 49° 261° (W) 12:11:15 437.445
50 SAT 10 Dec 12:27:55 12:31:28 68° 284° (WNW) 12:35:00 437.505
BEESAT 3 10 Dec 12:28:36 12:32:35 68° 56° (NE) 12:36:32 437.485
RS-15 10 Dec 12:32:01 12:41:44 25° 16° (NNE) 12:51:22 29.354- 29.394
Oscar 19 10 Dec 12:33:20 12:38:25 75° 76° (ENE) 12:43:35 437.125/150
AO-7 10 Dec 12:37:13 12:42:02 17° 48° (NE) 12:46:53 29.400- 29.500
PCSat 10 Dec 12:51:16 12:52:46 11° 325° (NW) 12:54:16 145.827
AISAT 10 Dec 12:56:13 13:00:14 33° 291° (WNW) 13:04:14 437.250
TISAT 1 10 Dec 12:57:09 13:00:41 26° 96° (E) 13:04:11 437.305
BEESAT 2 10 Dec 13:08:26 13:12:30 82° 58° (ENE) 13:16:31 435.950
Gurwin Techsat 1B 10 Dec 13:09:04 13:14:23 82° 75° (ENE) 13:19:44 435.225
CUBEBUG 1 10 Dec 13:09:47 13:12:46 18° 295° (WNW) 13:15:44 437.445
ESTCUBE 1 10 Dec 13:13:04 13:14:31 11° 299° (WNW) 13:15:58 437.505/2401.250
ITAMSAT 1 10 Dec 13:14:02 13:17:58 22° 64° (ENE) 13:21:55 435.822/435.867
GONETS M04 10 Dec 13:19:03 13:25:15 22° 280° (W) 13:31:30
Cosmos 2499 10 Dec 13:23:05 13:27:52 17° 284° (WNW) 13:32:29 435.465 / 435.565
UKube-1 10 Dec 13:26:21 13:30:26 40° 289° (WNW) 13:34:28 .
SPROUT 10 Dec 13:29:04 13:32:23 22° 293° (WNW) 13:35:41 437.525
DX 1 10 Dec 13:29:26 13:33:14 29° 292° (WNW) 13:37:00 434.975-435.025
VELOX 1 10 Dec 13:33:51 13:36:31 16° 297° (WNW) 13:39:10 145.980
